Weather in Polevoy Sundyr

Russia / Chuvash Republic     55°10′27″N   47°39′52″E
temp.,
°C
wind,
m/s
gust,
m/s
humid.,
%
clouds,
%
prec.,
mm/h
press.,
hPa
HPBL,
m
18 april, sun
sun1800:00+5ne512750 0.0 1022275
03:00+4ne49800 0.0 1023176
06:00+4ne49764 0.0 1022211
09:00+9ene57530 0.0 1022655
12:00+12ene56380 0.0 10221369
15:00+14ene67375 0.0 10211756
18:00+12ne594695 0.0 1021513
21:00+7ene7127193 0.0 1024699
19 april, mon
mon1900:00+4ene6125669 0.0 1025461
03:00+2ene61266100 0.0 1026459
06:00+2ene71362100 0.0 1026568
09:00+3e91249100 0.0 1027837
12:00+6e91148100 0.0 10271252
15:00+7e91144100 0.0 10271457
18:00+6e8124291 0.0 10271161
21:00+4ene7144271 0.0 1028518
20 april, tue
tue2000:00+2e7154966 0.0 1028475
03:00+1e614575 0.0 1029392
06:00+1e614615 0.0 1030489
09:00+5ese811390 0.0 1030948
12:00+8ese810320 0.0 10291348
15:00+9ese810281 0.0 10281441
18:00+8ese7113330 0.0 10261092
21:00+6ese81540100 0.0 1026679
21 april, wed
wed2100:00+4ese81644100 0.0 1025760
03:00+3se91746100 0.0 1024711
06:00+3se101946100 0.0 1022732
09:00+1se102073100 1.4 1021730
12:00+1se112186100 0.7 1021840
15:00+1sse101892100 1.9 1021704
18:00+1sse91794100 0.9 1022603
21:00+2sse71495100 0.9 1022522
22 april, thu
thu2200:00+2sse61296100 0.3 1023450
03:00+2sse61197100 0.3 1023381
06:00+3sse61297100 0.1 1023415
09:00+5s61293100 0.1 1023480
12:00+7s5888100 0.0 1024606
15:00+10s467098 0.0 1024996
18:00+8se6108689 0.0 1026390
21:00+5sse5109675 0.0 1026247